Home > Weather > Kunduz > Past weeks

Flag for Afghanistan Past Weather in Kunduz, Afghanistan — Yesterday and Last 2 Weeks

Now
82 °F

Passing clouds.


Feels Like: 82 °F
Forecast: 77 / 107 °F
Wind: 3 mph from Northeast

Location: Termez Airport

Current Time: Jun 29, 2016 at 8:25:04 AM

Latest Report: Jun 29, 2016 at 7:30 AM


Visibility: N/A

Pressure: 29.74 "Hg

Humidity: 42%

Dew Point: 57 °F

Location of KunduzLocation

Past Weather in Kunduz — Graph

°F

Kunduz Temperature Yesterday

Maximum temperature yesterday: 95 °F (at 2:00 PM)
Minimum temperature yesterday: 73 °F (at 4:30 AM)
Average temperature yesterday: 84 °F

High & Low Weather Summary for the Past Weeks

 TemperatureHumidityPressure
High104 °F (Jun 19, 2:30 PM)68% (Jun 17, 3:30 AM)29.98 "Hg (Jun 17, 3:30 AM)
Low64 °F (Jun 23, 4:00 AM)9% (Jun 19, 2:30 PM)29.62 "Hg (Jun 26, 4:30 PM)
Average84 °F31%29.78 "Hg
* Reported Jun 14 6:30 AM — Jun 29 7:00 AM, Kunduz, Weather by CustomWeather, © 2016

Note: Actual official high and low records may vary slightly from our data, if they occured in-between our weather recording intervals... More about our weather records

Advertising

Kunduz Weather History for the Previous 24 Hours

Scroll right to see more
 ConditionsComfort  
Time TempWeatherWind HumidityBarometerVisibility
7:00 AM
Wed, Jun 29
79 °FPassing clouds.3 mph54%29.74 "HgN/A
6:30 AM77 °FSunny.3 mph57%29.74 "Hg10 mi
6:00 AM75 °FSunny.1 mph57%29.74 "Hg10 mi
5:30 AM72 °FSunny.1 mph61%29.74 "Hg10 mi
5:00 AM72 °FSunny.2 mph57%29.71 "Hg10 mi
4:30 AM72 °FClear.3 mph57%29.71 "Hg10 mi
3:30 AM72 °FClear.2 mph61%29.71 "Hg10 mi
2:30 AM72 °FClear.2 mph61%29.71 "Hg10 mi
1:30 AM75 °FClear.3 mph50%29.71 "Hg10 mi
1:00 AM75 °FClear.3 mph50%29.71 "Hg10 mi
12:30 AM77 °FClear.3 mph47%29.71 "Hg6 mi
12:00 AM77 °FClear.2 mph51%29.71 "Hg6 mi
11:30 PM
Tue, Jun 28
77 °FClear.1 mph54%29.71 "Hg6 mi
11:00 PM77 °FClear.2 mph54%29.71 "Hg5 mi
10:30 PM81 °FClear.No wind45%29.71 "Hg5 mi
10:00 PM81 °FClear.3 mph42%29.71 "Hg10 mi
9:30 PM82 °FClear.3 mph35%29.71 "Hg10 mi
9:00 PM82 °FClear.No wind32%29.71 "Hg10 mi
8:30 PM86 °FClear.No wind24%29.71 "Hg10 mi
8:00 PM88 °FClear.No wind24%29.68 "Hg10 mi
7:30 PM88 °FClear.2 mph27%29.71 "Hg10 mi
7:00 PM90 °FSunny.2 mph27%29.71 "Hg10 mi
6:30 PM91 °FSunny.2 mph24%29.71 "Hg10 mi
6:00 PM91 °FSunny.3 mph28%29.71 "Hg10 mi
5:30 PM93 °FSunny.3 mph30%29.71 "Hg10 mi
5:00 PM93 °FSunny.3 mph28%29.71 "Hg10 mi
4:30 PM95 °FSunny.3 mph22%29.71 "Hg10 mi
4:00 PM95 °FPassing clouds.3 mph18%29.71 "HgN/A
3:30 PM95 °FPassing clouds.3 mph15%29.71 "HgN/A
3:00 PM95 °FPassing clouds.6 mph20%29.74 "HgN/A
2:30 PM95 °FPassing clouds.3 mph18%29.74 "HgN/A
2:00 PM95 °FPassing clouds.3 mph20%29.77 "HgN/A
1:30 PM93 °FPassing clouds.8 mph19%29.77 "HgN/A
1:00 PM93 °FPassing clouds.8 mph21%29.77 "HgN/A
12:30 PM91 °FPassing clouds.7 mph21%29.77 "HgN/A
12:00 PM90 °FPassing clouds.7 mph27%29.80 "HgN/A
11:30 AM90 °FPassing clouds.6 mph27%29.80 "HgN/A
11:00 AM88 °FClear.7 mph25%29.80 "Hg6 mi
10:30 AM88 °FClear.8 mph27%29.80 "Hg5 mi
10:00 AM86 °FClear.12 mph29%29.80 "Hg6 mi
9:30 AM82 °FClear.13 mph28%29.80 "HgN/A
9:00 AM82 °FClear.16 mph28%29.80 "Hg5 mi
8:30 AM82 °FClear.15 mph30%29.80 "Hg4 mi
8:00 AM81 °FClear.12 mph30%29.80 "Hg4 mi
Weather by CustomWeather, © 2016

See weather overviewHow to use our weather pages